QPF
0.00 0.00 0.00 0.00 0.00 0.00 0.00 0.00 0.00 0.00 0.00 0.00 0.00 0.00 0.00 0.00 0.00 0.00 0.00 0.01 0.01 0.01 0.00 0.00 0.00 0.00 0.01 0.02 0.03 0.04 0.05 0.06 0.04 0.04 0.05 0.07 0.07 0.07 0.09 0.08 0.09 0.07 0.03 0.01
0.00 0.00 0.00 0.00 0.00 0.00 0.00 0.00 0.00 0.00 0.00 0.00 0.00 0.00 0.00 0.00 0.00 0.00 0.00 0.00 0.00 0.00 0.00 0.00 0.00 0.00 0.01 0.01 0.02 0.03 0.04 0.07 0.06 0.05 0.05 0.05 0.05 0.05 0.07 0.08 0.09 0.08 0.04 0.02
0.00 0.00 0.00 0.00 0.00 0.00 0.00 0.00 0.00 0.00 0.00 0.00 0.00 0.00 0.00 0.00 0.00 0.00 0.00 0.00 0.00 0.00 0.00 0.00 0.00 0.00 0.01 0.01 0.02 0.02 0.03 0.05 0.06 0.05 0.06 0.06 0.07 0.06 0.07 0.08 0.09 0.08 0.05 0.03
0.00 0.00 0.00 0.00 0.00 0.00 0.00 0.00 0.00 0.01 0.01 0.01 0.00 0.01 0.00 0.00 0.00 0.00 0.00 0.00 0.00 0.00 0.00 0.00 0.00 0.00 0.01 0.02 0.02 0.02 0.03 0.04 0.05 0.05 0.05 0.05 0.06 0.06 0.05 0.06 0.07 0.08 0.07 0.05
0.00 0.00 0.00 0.00 0.00 0.00 0.00 0.00 0.01 0.01 0.01 0.01 0.01 0.01 0.01 0.00 0.00 0.00 0.00 0.00 0.00 0.00 0.00 0.00 0.00 0.00 0.00 0.01 0.02 0.02 0.03 0.03 0.05 0.05 0.05 0.05 0.06 0.06 0.05 0.05 0.06 0.06 0.06 0.06
0.00 0.00 0.00 0.00 0.00 0.00 0.00 0.00 0.00 0.01 0.01 0.02 0.01 0.01 0.01 0.00 0.00 0.00 0.00 0.00 0.00 0.00 0.00 0.00 0.00 0.01 0.01 0.01 0.02 0.03 0.02 0.03 0.04 0.05 0.06 0.05 0.05 0.07 0.08 0.07 0.06 0.06 0.06 0.06
0.00 0.00 0.00 0.00 0.00 0.00 0.00 0.01 0.01 0.01 0.01 0.01 0.01 0.01 0.01 0.01 0.00 0.00 0.00 0.00 0.00 0.00 0.00 0.00 0.01 0.01 0.01 0.01 0.02 0.02 0.03 0.03 0.04 0.04 0.05 0.05 0.05 0.06 0.08 0.09 0.09 0.08 0.07 0.06
0.00 0.00 0.00 0.00 0.00 0.00 0.00 0.01 0.01 0.01 0.01 0.00 0.00 0.01 0.01 0.01 0.00 0.00 0.00 0.00 0.00 0.00 0.00 0.00 0.01 0.01 0.01 0.01 0.02 0.02 0.03 0.03 0.03 0.04 0.05 0.05 0.05 0.05 0.06 0.09 0.10 0.09 0.08 0.07
0.00 0.00 0.00 0.00 0.00 0.00 0.01 0.01 0.01 0.01 0.01 0.01 0.01 0.01 0.01 0.00 0.00 0.00 0.00 0.00 0.00 0.00 0.00 0.00 0.01 0.01 0.01 0.01 0.03 0.03 0.03 0.02 0.02 0.02 0.03 0.05 0.06 0.06 0.05 0.06 0.08 0.10 0.09 0.08
0.01 0.01 0.00 0.00 0.00 0.00 0.00 0.00 0.01 0.01 0.01 0.01 0.01 0.01 0.01 0.01 0.00 0.00 0.00 0.00 0.00 0.00 0.00 0.00 0.00 0.01 0.02 0.02 0.03 0.03 0.03 0.02 0.02 0.02 0.02 0.03 0.04 0.05 0.05 0.05 0.06 0.08 0.10 0.09
0.01 0.01 0.00 0.00 0.00 0.00 0.00 0.00 0.01 0.02 0.01 0.01 0.01 0.01 0.01 0.01 0.00 0.00 0.00 0.00 0.01 0.01 0.01 0.01 0.01 0.01 0.02 0.03 0.03 0.03 0.03 0.02 0.02 0.02 0.02 0.02 0.02 0.03 0.04 0.05 0.05 0.06 0.09 0.10
0.01 0.02 0.01 0.00 0.00 0.00 0.00 0.00 0.01 0.02 0.02 0.01 0.02 0.01 0.01 0.01 0.01 0.00 0.00 0.00 0.01 0.01 0.01 0.01 0.01 0.01 0.02 0.02 0.03 0.03 0.03 0.02 0.02 0.02 0.02 0.02 0.02 0.02 0.02 0.03 0.04 0.05 0.07 0.09
0.02 0.04 0.03 0.01 0.00 0.00 0.01 0.01 0.01 0.02 0.03 0.02 0.02 0.01 0.00 0.00 0.00 0.00 0.00 0.01 0.01 0.01 0.02 0.02 0.01 0.01 0.02 0.02 0.02 0.03 0.03 0.02 0.02 0.02 0.02 0.03 0.02 0.02 0.02 0.02 0.03 0.04 0.05 0.06
0.04 0.05 0.03 0.01 0.00 0.00 0.00 0.01 0.01 0.03 0.05 0.03 0.01 0.01 0.00 0.00 0.00 0.01 0.01 0.01 0.01 0.02 0.02 0.01 0.00 0.00 0.01 0.02 0.01 0.02 0.02 0.02 0.01 0.02 0.02 0.03 0.02 0.02 0.02 0.02 0.02 0.03 0.03 0.04
0.04 0.06 0.02 0.01 0.00 0.00 0.00 0.00 0.00 0.01 0.02 0.02 0.01 0.00 0.00 0.00 0.00 0.01 0.01 0.01 0.02 0.01 0.01 0.00 0.00 0.00 0.01 0.01 0.01 0.02 0.02 0.02 0.01 0.02 0.02 0.02 0.02 0.01 0.01 0.02 0.02 0.02 0.02 0.02
0.03 0.05 0.03 0.02 0.00 0.00 0.00 0.00 0.00 0.00 0.00 0.01 0.01 0.00 0.00 0.00 0.00 0.01 0.01 0.01 0.01 0.01 0.01 0.00 0.00 0.00 0.00 0.01 0.01 0.02 0.02 0.02 0.02 0.01 0.02 0.02 0.02 0.01 0.01 0.01 0.02 0.02 0.02 0.01
0.05 0.05 0.06 0.04 0.01 0.02 0.02 0.00 0.00 0.00 0.00 0.00 0.01 0.00 0.00 0.01 0.01 0.01 0.01 0.01 0.01 0.01 0.00 0.00 0.00 0.00 0.00 0.01 0.01 0.02 0.02 0.03 0.02 0.02 0.02 0.02 0.03 0.02 0.01 0.02 0.02 0.02 0.02 0.02
0.03 0.04 0.05 0.05 0.04 0.04 0.01 0.00 0.00 0.01 0.00 0.01 0.01 0.00 0.01 0.01 0.01 0.01 0.01 0.01 0.01 0.01 0.00 0.00 0.00 0.00 0.01 0.01 0.01 0.02 0.03 0.03 0.03 0.03 0.03 0.03 0.03 0.03 0.02 0.02 0.02 0.02 0.02 0.02
0.02 0.03 0.06 0.07 0.07 0.03 0.01 0.00 0.00 0.01 0.01 0.01 0.01 0.01 0.01 0.01 0.01 0.01 0.01 0.01 0.01 0.01 0.01 0.00 0.00 0.00 0.01 0.02 0.02 0.02 0.02 0.03 0.03 0.04 0.03 0.03 0.03 0.03 0.03 0.02 0.02 0.02 0.02 0.02
0.02 0.03 0.07 0.08 0.07 0.03 0.01 0.00 0.00 0.01 0.01 0.01 0.01 0.01 0.01 0.01 0.01 0.01 0.01 0.01 0.01 0.01 0.01 0.01 0.01 0.01 0.01 0.02 0.02 0.01 0.01 0.02 0.03 0.03 0.03 0.03 0.03 0.03 0.02 0.02 0.02 0.02 0.02 0.02
0.02 0.04 0.06 0.05 0.05 0.03 0.01 0.01 0.01 0.02 0.02 0.01 0.01 0.01 0.01 0.01 0.01 0.01 0.01 0.02 0.02 0.02 0.02 0.01 0.01 0.01 0.01 0.02 0.02 0.01 0.01 0.01 0.01 0.03 0.03 0.03 0.02 0.02 0.02 0.02 0.02 0.02 0.02 0.02
0.01 0.02 0.03 0.03 0.04 0.03 0.01 0.00 0.01 0.01 0.01 0.01 0.01 0.01 0.01 0.01 0.01 0.02 0.02 0.02 0.02 0.02 0.02 0.02 0.02 0.02 0.02 0.02 0.02 0.01 0.02 0.01 0.01 0.02 0.03 0.03 0.02 0.02 0.02 0.01 0.01 0.02 0.02 0.02
0.01 0.01 0.01 0.01 0.01 0.01 0.01 0.01 0.01 0.01 0.01 0.01 0.01 0.01 0.01 0.01 0.02 0.02 0.02 0.02 0.02 0.02 0.02 0.02 0.02 0.02 0.02 0.02 0.01 0.01 0.02 0.02 0.02 0.02 0.02 0.03 0.02 0.02 0.02 0.02 0.01 0.01 0.01 0.01
0.01 0.01 0.01 0.01 0.00 0.00 0.01 0.01 0.01 0.01 0.01 0.01 0.01 0.01 0.02 0.02 0.02 0.02 0.02 0.02 0.02 0.01 0.01 0.01 0.01 0.01 0.01 0.01 0.01 0.01 0.01 0.01 0.01 0.01 0.01 0.02 0.02 0.02 0.02 0.02 0.01 0.01 0.01 0.01
0.01 0.01 0.01 0.01 0.00 0.00 0.00 0.00 0.00 0.01 0.01 0.01 0.01 0.02 0.02 0.01 0.01 0.01 0.02 0.01 0.01 0.01 0.01 0.01 0.01 0.01 0.00 0.00 0.00 0.00 0.00 0.00 0.01 0.01 0.01 0.01 0.01 0.01 0.01 0.01 0.01 0.01 0.01 0.02
0.01 0.00 0.00 0.00 0.00 0.00 0.00 0.00 0.00 0.00 0.01 0.01 0.01 0.02 0.01 0.01 0.02 0.02 0.01 0.01 0.01 0.01 0.01 0.00 0.00 0.00 0.00 0.00 0.00 0.00 0.00 0.00 0.00 0.00 0.00 0.00 0.00 0.00 0.00 0.00 0.01 0.01 0.01 0.01
MSLP
1016.55 1016.47 1016.32 1016.14 1015.98 1015.86 1015.80 1015.80 1015.84 1015.88 1015.88 1015.82 1015.69 1015.51 1015.32 1015.20 1015.20 1015.38 1015.74 1016.29 1016.96 1017.69 1018.38 1018.96 1019.37 1019.60 1019.68 1019.66 1019.62 1019.65 1019.83 1020.19 1020.72 1021.38 1022.12 1022.85 1023.50 1024.00 1024.33 1024.50 1024.56 1024.55 1024.53 1024.56
1016.76 1016.59 1016.36 1016.10 1015.87 1015.72 1015.66 1015.68 1015.77 1015.85 1015.88 1015.82 1015.65 1015.41 1015.13 1014.92 1014.83 1014.93 1015.27 1015.82 1016.54 1017.35 1018.14 1018.83 1019.35 1019.67 1019.80 1019.82 1019.80 1019.84 1020.01 1020.37 1020.92 1021.62 1022.41 1023.20 1023.92 1024.50 1024.89 1025.12 1025.22 1025.23 1025.22 1025.24
1017.03 1016.79 1016.48 1016.15 1015.87 1015.68 1015.62 1015.66 1015.76 1015.85 1015.86 1015.76 1015.51 1015.16 1014.76 1014.40 1014.20 1014.21 1014.51 1015.06 1015.84 1016.75 1017.68 1018.51 1019.18 1019.63 1019.88 1019.98 1020.01 1020.08 1020.27 1020.63 1021.19 1021.90 1022.72 1023.56 1024.33 1024.96 1025.43 1025.72 1025.86 1025.91 1025.92 1025.95
1017.35 1017.06 1016.68 1016.30 1015.98 1015.78 1015.71 1015.76 1015.85 1015.91 1015.87 1015.67 1015.31 1014.80 1014.24 1013.73 1013.38 1013.30 1013.54 1014.10 1014.94 1015.96 1017.04 1018.05 1018.90 1019.52 1019.92 1020.14 1020.27 1020.39 1020.61 1020.98 1021.53 1022.25 1023.07 1023.92 1024.72 1025.40 1025.91 1026.25 1026.45 1026.54 1026.59 1026.63
1017.69 1017.35 1016.93 1016.52 1016.19 1015.98 1015.92 1015.96 1016.03 1016.04 1015.92 1015.61 1015.09 1014.42 1013.69 1013.01 1012.52 1012.34 1012.53 1013.10 1013.99 1015.12 1016.35 1017.54 1018.58 1019.40 1019.97 1020.34 1020.58 1020.77 1021.03 1021.41 1021.96 1022.65 1023.45 1024.29 1025.09 1025.79 1026.34 1026.72 1026.97 1027.11 1027.19 1027.27
1018.00 1017.62 1017.18 1016.76 1016.43 1016.23 1016.18 1016.21 1016.26 1016.22 1016.01 1015.58 1014.93 1014.10 1013.21 1012.39 1011.79 1011.52 1011.66 1012.23 1013.17 1014.39 1015.75 1017.10 1018.31 1019.31 1020.05 1020.57 1020.93 1021.21 1021.51 1021.91 1022.44 1023.10 1023.87 1024.67 1025.45 1026.15 1026.71 1027.13 1027.42 1027.61 1027.74 1027.86
1018.20 1017.80 1017.35 1016.94 1016.63 1016.47 1016.43 1016.46 1016.48 1016.40 1016.12 1015.59 1014.84 1013.90 1012.91 1012.00 1011.32 1011.00 1011.12 1011.69 1012.66 1013.94 1015.38 1016.84 1018.17 1019.30 1020.18 1020.83 1021.30 1021.66 1022.01 1022.43 1022.95 1023.58 1024.30 1025.07 1025.81 1026.49 1027.06 1027.50 1027.83 1028.06 1028.25 1028.42
1018.28 1017.86 1017.41 1017.03 1016.76 1016.63 1016.61 1016.65 1016.66 1016.53 1016.21 1015.63 1014.83 1013.85 1012.83 1011.90 1011.22 1010.90 1011.01 1011.59 1012.57 1013.86 1015.33 1016.82 1018.21 1019.41 1020.38 1021.11 1021.66 1022.10 1022.50 1022.94 1023.46 1024.07 1024.76 1025.48 1026.19 1026.84 1027.40 1027.86 1028.21 1028.49 1028.73 1028.95
1018.24 1017.81 1017.39 1017.04 1016.82 1016.72 1016.72 1016.76 1016.74 1016.60 1016.24 1015.66 1014.87 1013.92 1012.95 1012.09 1011.47 1011.21 1011.36 1011.95 1012.92 1014.18 1015.61 1017.07 1018.44 1019.64 1020.63 1021.40 1022.00 1022.50 1022.95 1023.42 1023.96 1024.56 1025.22 1025.92 1026.60 1027.23 1027.78 1028.24 1028.62 1028.93 1029.20 1029.47
1018.12 1017.71 1017.33 1017.04 1016.85 1016.77 1016.77 1016.79 1016.74 1016.56 1016.20 1015.63 1014.89 1014.05 1013.20 1012.48 1011.99 1011.84 1012.07 1012.68 1013.62 1014.82 1016.16 1017.53 1018.81 1019.95 1020.90 1021.67 1022.30 1022.84 1023.34 1023.86 1024.42 1025.04 1025.70 1026.38 1027.05 1027.66 1028.21 1028.67 1029.06 1029.40 1029.70 1029.99
1017.99 1017.64 1017.33 1017.10 1016.94 1016.87 1016.83 1016.78 1016.66 1016.43 1016.03 1015.49 1014.83 1014.11 1013.44 1012.90 1012.60 1012.60 1012.93 1013.59 1014.51 1015.63 1016.85 1018.08 1019.24 1020.27 1021.15 1021.90 1022.54 1023.11 1023.67 1024.24 1024.85 1025.51 1026.19 1026.88 1027.54 1028.15 1028.68 1029.15 1029.55 1029.89 1030.21 1030.52
1017.92 1017.68 1017.47 1017.30 1017.18 1017.07 1016.96 1016.80 1016.56 1016.21 1015.76 1015.20 1014.60 1014.02 1013.52 1013.20 1013.10 1013.28 1013.73 1014.44 1015.35 1016.40 1017.50 1018.59 1019.62 1020.53 1021.34 1022.06 1022.70 1023.32 1023.93 1024.58 1025.25 1025.96 1026.67 1027.37 1028.04 1028.65 1029.18 1029.65 1030.05 1030.40 1030.72 1031.03
1017.94 1017.85 1017.77 1017.68 1017.57 1017.42 1017.19 1016.87 1016.45 1015.95 1015.37 1014.76 1014.19 1013.70 1013.35 1013.22 1013.32 1013.67 1014.25 1015.03 1015.94 1016.93 1017.95 1018.92 1019.84 1020.67 1021.42 1022.12 1022.79 1023.46 1024.15 1024.87 1025.61 1026.37 1027.12 1027.84 1028.52 1029.13 1029.67 1030.13 1030.54 1030.90 1031.23 1031.54
1018.06 1018.15 1018.22 1018.21 1018.11 1017.88 1017.51 1016.99 1016.36 1015.64 1014.90 1014.19 1013.58 1013.13 1012.90 1012.91 1013.17 1013.67 1014.36 1015.21 1016.14 1017.12 1018.07 1018.99 1019.84 1020.63 1021.37 1022.09 1022.81 1023.55 1024.32 1025.11 1025.92 1026.72 1027.51 1028.25 1028.93 1029.54 1030.08 1030.56 1030.98 1031.35 1031.69 1032.01
1018.24 1018.52 1018.72 1018.80 1018.68 1018.37 1017.84 1017.12 1016.25 1015.31 1014.37 1013.52 1012.84 1012.38 1012.19 1012.29 1012.66 1013.26 1014.05 1014.95 1015.92 1016.90 1017.85 1018.75 1019.60 1020.40 1021.19 1021.97 1022.77 1023.59 1024.44 1025.30 1026.17 1027.01 1027.81 1028.56 1029.24 1029.85 1030.40 1030.89 1031.33 1031.74 1032.10 1032.44
1018.40 1018.85 1019.17 1019.29 1019.16 1018.76 1018.08 1017.17 1016.09 1014.94 1013.82 1012.82 1012.04 1011.54 1011.35 1011.48 1011.90 1012.56 1013.39 1014.34 1015.34 1016.34 1017.32 1018.25 1019.15 1020.03 1020.90 1021.78 1022.68 1023.60 1024.53 1025.45 1026.35 1027.21 1028.02 1028.76 1029.43 1030.04 1030.60 1031.12 1031.60 1032.04 1032.45 1032.83
1018.49 1019.03 1019.41 1019.55 1019.40 1018.92 1018.12 1017.07 1015.83 1014.53 1013.27 1012.16 1011.30 1010.74 1010.52 1010.64 1011.06 1011.72 1012.57 1013.53 1014.54 1015.58 1016.60 1017.60 1018.59 1019.57 1020.56 1021.55 1022.57 1023.58 1024.59 1025.56 1026.49 1027.35 1028.14 1028.86 1029.52 1030.13 1030.71 1031.25 1031.78 1032.28 1032.75 1033.18
1018.42 1018.97 1019.35 1019.46 1019.26 1018.72 1017.86 1016.74 1015.43 1014.07 1012.76 1011.61 1010.71 1010.12 1009.87 1009.95 1010.34 1010.96 1011.78 1012.71 1013.73 1014.78 1015.85 1016.92 1018.01 1019.10 1020.21 1021.33 1022.46 1023.56 1024.63 1025.64 1026.58 1027.43 1028.20 1028.91 1029.55 1030.16 1030.76 1031.34 1031.91 1032.47 1033.00 1033.49
1018.17 1018.63 1018.92 1018.97 1018.71 1018.14 1017.27 1016.16 1014.89 1013.57 1012.31 1011.20 1010.34 1009.76 1009.50 1009.55 1009.89 1010.45 1011.20 1012.09 1013.07 1014.12 1015.21 1016.35 1017.51 1018.71 1019.94 1021.16 1022.38 1023.56 1024.68 1025.71 1026.64 1027.49 1028.24 1028.93 1029.57 1030.19 1030.80 1031.42 1032.04 1032.65 1033.23 1033.76
1017.74 1018.03 1018.17 1018.11 1017.78 1017.20 1016.37 1015.35 1014.20 1013.03 1011.92 1010.96 1010.20 1009.69 1009.46 1009.50 1009.78 1010.28 1010.95 1011.76 1012.68 1013.70 1014.79 1015.96 1017.19 1018.46 1019.76 1021.07 1022.35 1023.58 1024.73 1025.77 1026.71 1027.55 1028.29 1028.97 1029.61 1030.24 1030.88 1031.53 1032.18 1032.83 1033.44 1034.00
1017.14 1017.21 1017.16 1016.96 1016.57 1016.00 1015.25 1014.38 1013.43 1012.48 1011.60 1010.84 1010.25 1009.87 1009.70 1009.76 1010.01 1010.44 1011.03 1011.76 1012.61 1013.58 1014.65 1015.81 1017.06 1018.37 1019.72 1021.06 1022.38 1023.64 1024.80 1025.85 1026.78 1027.62 1028.36 1029.05 1029.71 1030.36 1031.02 1031.69 1032.36 1033.02 1033.64 1034.20
1016.42 1016.25 1016.01 1015.67 1015.22 1014.67 1014.03 1013.34 1012.62 1011.94 1011.32 1010.81 1010.44 1010.21 1010.15 1010.24 1010.48 1010.87 1011.40 1012.05 1012.83 1013.74 1014.77 1015.91 1017.15 1018.46 1019.81 1021.16 1022.48 1023.73 1024.88 1025.93 1026.87 1027.71 1028.47 1029.18 1029.86 1030.53 1031.21 1031.89 1032.57 1033.22 1033.82 1034.35
1015.61 1015.23 1014.81 1014.35 1013.87 1013.35 1012.83 1012.32 1011.84 1011.42 1011.08 1010.82 1010.67 1010.61 1010.66 1010.82 1011.09 1011.46 1011.95 1012.55 1013.28 1014.14 1015.13 1016.23 1017.44 1018.72 1020.03 1021.35 1022.64 1023.86 1024.99 1026.02 1026.96 1027.81 1028.59 1029.33 1030.04 1030.75 1031.44 1032.13 1032.80 1033.42 1033.97 1034.45
1014.75 1014.21 1013.67 1013.14 1012.63 1012.16 1011.76 1011.41 1011.15 1010.97 1010.86 1010.83 1010.87 1010.98 1011.16 1011.40 1011.71 1012.10 1012.58 1013.17 1013.88 1014.71 1015.67 1016.74 1017.90 1019.13 1020.39 1021.65 1022.87 1024.04 1025.12 1026.13 1027.06 1027.92 1028.72 1029.49 1030.24 1030.98 1031.69 1032.38 1033.02 1033.60 1034.11 1034.53
1013.86 1013.25 1012.65 1012.09 1011.60 1011.19 1010.88 1010.68 1010.59 1010.59 1010.68 1010.83 1011.03 1011.28 1011.57 1011.90 1012.28 1012.72 1013.24 1013.86 1014.58 1015.41 1016.36 1017.40 1018.52 1019.69 1020.88 1022.06 1023.20 1024.29 1025.31 1026.27 1027.18 1028.04 1028.86 1029.66 1030.44 1031.20 1031.93 1032.62 1033.24 1033.79 1034.25 1034.62
1012.99 1012.37 1011.78 1011.25 1010.80 1010.46 1010.25 1010.16 1010.20 1010.33 1010.55 1010.83 1011.15 1011.51 1011.90 1012.32 1012.79 1013.31 1013.90 1014.58 1015.35 1016.22 1017.18 1018.22 1019.30 1020.41 1021.52 1022.60 1023.64 1024.64 1025.58 1026.48 1027.35 1028.19 1029.02 1029.84 1030.65 1031.44 1032.19 1032.87 1033.49 1034.01 1034.44 1034.77
Thickness
5540 5534 5531 5532 5531 5533 5528 5524 5523 5528 5532 5528 5527 5532 5539 5538 5535 5536 5535 5534 5535 5537 5539 5540 5541 5542 5544 5545 5545 5547 5547 5548 5549 5549 5548 5547 5545 5545 5544 5543 5542 5541 5541 5540
5526 5525 5531 5528 5525 5523 5519 5516 5514 5518 5521 5519 5517 5523 5530 5530 5530 5530 5529 5528 5528 5529 5530 5531 5532 5533 5534 5535 5536 5538 5538 5540 5539 5540 5540 5539 5538 5536 5535 5534 5533 5533 5532 5531
5522 5524 5523 5519 5515 5514 5511 5508 5508 5507 5507 5507 5505 5518 5524 5528 5524 5524 5523 5522 5521 5521 5521 5522 5523 5523 5524 5525 5526 5529 5530 5530 5529 5530 5530 5530 5529 5527 5526 5525 5524 5524 5523 5523
5508 5511 5511 5509 5506 5505 5503 5503 5499 5495 5491 5489 5493 5494 5517 5517 5516 5519 5518 5514 5513 5513 5513 5513 5514 5514 5515 5516 5517 5519 5520 5520 5520 5521 5521 5522 5521 5520 5519 5518 5516 5515 5514 5513
5500 5499 5500 5498 5498 5495 5491 5491 5487 5485 5480 5475 5477 5474 5502 5504 5509 5516 5514 5510 5507 5505 5504 5505 5505 5505 5506 5505 5507 5508 5509 5510 5511 5512 5512 5512 5511 5510 5509 5508 5507 5506 5505 5504
5487 5488 5488 5489 5487 5485 5479 5476 5472 5464 5460 5460 5470 5467 5489 5492 5504 5509 5506 5503 5499 5497 5495 5495 5495 5495 5496 5496 5497 5498 5499 5500 5501 5501 5502 5502 5501 5500 5498 5497 5497 5496 5495 5493
5478 5479 5478 5477 5476 5474 5471 5462 5451 5446 5436 5449 5462 5464 5484 5495 5493 5496 5496 5493 5490 5487 5484 5484 5484 5485 5485 5485 5486 5487 5488 5489 5490 5491 5492 5492 5491 5490 5489 5488 5487 5485 5484 5483
5463 5467 5469 5467 5469 5463 5460 5459 5449 5440 5437 5445 5452 5456 5481 5485 5483 5482 5481 5479 5477 5475 5474 5474 5474 5475 5475 5476 5476 5477 5477 5478 5479 5480 5480 5480 5480 5479 5478 5478 5476 5475 5474 5473
5453 5458 5459 5458 5458 5458 5450 5444 5447 5433 5417 5422 5441 5449 5469 5476 5474 5472 5471 5469 5466 5465 5464 5463 5463 5463 5464 5464 5465 5466 5467 5467 5468 5468 5469 5469 5469 5468 5468 5467 5466 5464 5463 5461
5448 5443 5447 5446 5448 5446 5445 5438 5428 5422 5416 5421 5443 5450 5463 5476 5471 5467 5463 5459 5457 5455 5453 5453 5452 5452 5452 5452 5453 5454 5455 5456 5456 5457 5457 5457 5456 5456 5456 5455 5454 5453 5451 5449
5438 5430 5428 5431 5430 5433 5429 5427 5425 5418 5416 5417 5425 5454 5465 5464 5462 5457 5454 5451 5447 5443 5441 5440 5439 5439 5439 5440 5441 5442 5443 5444 5444 5444 5445 5445 5444 5443 5443 5443 5442 5440 5438 5437
5428 5418 5413 5417 5420 5420 5422 5422 5419 5416 5408 5407 5420 5449 5459 5450 5447 5444 5441 5439 5434 5431 5429 5428 5427 5427 5427 5427 5428 5430 5431 5432 5432 5432 5433 5433 5432 5431 5431 5430 5429 5428 5426 5424
5418 5407 5404 5414 5410 5405 5405 5408 5411 5409 5404 5399 5408 5442 5445 5438 5436 5432 5429 5426 5423 5422 5420 5418 5416 5415 5415 5415 5415 5417 5418 5419 5420 5421 5420 5420 5419 5418 5418 5417 5416 5415 5413 5411
5417 5402 5405 5416 5419 5403 5397 5400 5399 5397 5394 5397 5414 5434 5439 5434 5428 5423 5419 5416 5413 5411 5410 5408 5405 5404 5404 5403 5403 5404 5404 5406 5408 5408 5408 5407 5406 5405 5404 5404 5403 5402 5401 5399
5404 5395 5388 5394 5396 5393 5394 5398 5396 5394 5400 5403 5419 5423 5435 5429 5423 5416 5409 5406 5404 5402 5400 5397 5395 5393 5392 5391 5391 5391 5392 5393 5394 5395 5394 5394 5393 5392 5391 5390 5389 5388 5387 5385
5390 5383 5376 5378 5383 5382 5386 5395 5395 5397 5399 5401 5407 5416 5424 5417 5407 5400 5397 5396 5395 5392 5389 5387 5385 5383 5382 5381 5379 5378 5378 5380 5381 5381 5381 5381 5380 5379 5378 5377 5376 5374 5373 5371
5376 5369 5369 5370 5366 5368 5377 5398 5399 5397 5398 5399 5405 5418 5409 5400 5396 5391 5388 5386 5384 5382 5379 5375 5372 5370 5369 5367 5367 5366 5366 5366 5367 5367 5367 5366 5366 5365 5364 5363 5361 5360 5359 5358
5371 5364 5358 5350 5352 5362 5410 5399 5394 5393 5393 5388 5390 5394 5393 5389 5381 5376 5374 5373 5371 5369 5365 5361 5359 5357 5355 5354 5353 5353 5353 5354 5354 5354 5354 5353 5352 5351 5351 5349 5348 5347 5346 5345
5370 5361 5347 5342 5346 5363 5386 5381 5375 5375 5379 5383 5380 5381 5378 5371 5366 5365 5364 5360 5358 5355 5352 5349 5346 5344 5343 5341 5341 5340 5340 5340 5340 5341 5340 5340 5339 5338 5337 5336 5335 5334 5333 5332
5356 5355 5346 5337 5342 5353 5389 5374 5366 5366 5370 5378 5371 5370 5366 5360 5360 5363 5356 5348 5344 5341 5338 5336 5333 5331 5329 5328 5327 5326 5326 5326 5326 5326 5326 5326 5326 5325 5324 5323 5321 5320 5320 5320
5341 5339 5341 5337 5339 5355 5365 5356 5357 5359 5377 5370 5363 5361 5355 5352 5354 5348 5340 5335 5331 5328 5325 5323 5320 5318 5316 5315 5313 5312 5312 5312 5312 5312 5312 5312 5312 5311 5311 5309 5308 5307 5307 5306
5342 5334 5331 5328 5331 5355 5352 5345 5353 5363 5360 5354 5350 5346 5341 5338 5334 5329 5325 5321 5317 5314 5311 5309 5306 5304 5302 5301 5300 5299 5299 5300 5298 5298 5298 5298 5298 5297 5297 5296 5295 5294 5293 5293
5337 5344 5342 5344 5356 5353 5340 5343 5344 5341 5340 5338 5334 5331 5327 5323 5319 5316 5312 5308 5304 5301 5298 5295 5292 5290 5288 5287 5286 5286 5287 5286 5284 5283 5283 5283 5284 5284 5283 5282 5282 5281 5280 5280
5324 5324 5326 5325 5335 5333 5329 5328 5327 5325 5324 5323 5319 5315 5312 5308 5306 5303 5299 5295 5291 5288 5284 5281 5278 5276 5275 5274 5273 5272 5272 5271 5270 5269 5270 5270 5270 5271 5270 5269 5269 5268 5268 5268
5320 5310 5312 5315 5321 5318 5319 5317 5314 5311 5309 5306 5302 5299 5297 5294 5292 5288 5284 5280 5276 5274 5269 5266 5264 5263 5263 5261 5260 5259 5258 5257 5257 5257 5256 5256 5256 5256 5256 5256 5256 5256 5258 5257
5306 5306 5313 5324 5319 5313 5316 5310 5302 5298 5296 5292 5288 5284 5281 5279 5276 5273 5269 5265 5261 5258 5255 5253 5251 5250 5248 5247 5246 5246 5245 5244 5243 5244 5244 5243 5242 5243 5243 5243 5244 5245 5246 5247